[[{"header":{"parameterUnit":"m.s-1","parameterCategory":1,"la1":30.2991,"la2":30.254,"lo1":-89.0895,"lo2":-89.0444,"dy":0.0017,"dx":0.0017,"nx":28,"ny":28,"refTime":"2024-02-18T03:00:00:Z","depth":0,"parameterNumber":2,"parameterNumberName":"U-component_of_WINDS"},"data":[0,0,0,0,0,0,0,0,0,0,0,0,0,0,0,0,0,0,0,0,0,0,0,0,0,0,0,0,0,0,0,0,0,0,0,0,0,0,0,0,0,0,0,0,0,0,0,0,0,0,0,0,0,0,0,0,0,0,-1.2438,-1.2439,0,-1.2553,-1.2554,-1.2556,-1.255,-1.2548,-1.2546,-1.2545,-1.2665,-1.267,-1.2675,0,0,0,0,0,0,0,0,0,0,0,0,0,-1.2215,-1.2219,-1.2438,-1.2439,-1.2441,-1.2553,-1.2554,-1.2556,-1.255,-1.2548,-1.2546,-1.2544,-1.2664,-1.2669,-1.2675,0,0,0,0,0,0,0,0,0,0,0,0,0,-1.2319,-1.222,-1.2438,-1.2451,-1.2453,-1.2553,-1.2554,-1.2556,-1.255,-1.2548,-1.2545,-1.2543,-1.2662,-1.2669,-1.2676,-1.277,0,0,-1.2698,-1.2701,0,0,0,0,0,0,0,0,-1.2313,-1.2327,-1.2448,-1.245,-1.2453,-1.2534,-1.252,-1.2628,-1.2551,-1.2514,-1.2545,-1.2542,-1.2624,-1.2634,-1.2661,-1.2775,-1.2781,-1.2698,-1.2703,-1.2706,-1.2708,0,0,0,0,0,0,0,-1.2306,-1.2322,-1.2483,-1.2449,-1.2453,-1.2452,-1.2464,-1.254,-1.2582,-1.2517,-1.2517,-1.253,-1.2625,-1.2654,-1.2664,-1.2782,-1.2698,-1.2704,-1.2709,-1.2712,-1.298,-1.2982,0,0,0,0,0,0,-1.2295,-1.2316,-1.248,-1.2487,-1.2375,-1.2458,-1.2472,-1.2511,-1.2581,-1.2589,-1.2532,-1.2529,-1.2643,-1.2656,-1.2668,-1.2783,-1.2706,-1.2712,-1.2716,-1.2977,-1.298,-1.2983,0,0,0,0,0,0,-1.229,-1.231,-1.2475,-1.2402,-1.2422,-1.2465,-1.2509,-1.2514,-1.2544,-1.2592,-1.26,-1.2555,-1.2642,-1.2658,-1.2744,-1.2788,-1.2716,-1.2722,-1.2973,-1.2978,-1.2982,-1.3014,0,0,0,0,0,0,-1.2284,-1.2308,-1.2344,-1.2402,-1.2426,-1.2549,-1.2511,-1.2519,-1.2556,-1.2553,-1.2615,-1.2623,-1.2641,-1.2734,-1.2752,-1.2796,-1.2728,-1.297,-1.2975,-1.298,-1.301,-1.3019,-1.3027,0,0,0,0,0,-1.2276,-1.2349,-1.2346,-1.2366,-1.2472,-1.2552,-1.2566,-1.2584,-1.2559,-1.2596,-1.2627,-1.2621,-1.2779,-1.2743,-1.2763,-1.281,-1.2967,-1.2974,-1.298,-1.3006,-1.3017,-1.3027,0,0,0,0,0,0,-1.2296,-1.2357,-1.2354,-1.2448,-1.2495,-1.255,-1.2598,-1.2596,-1.2651,-1.2647,-1.2668,-1.2682,-1.2769,-1.2798,-1.2756,-1.2904,-1.287,-1.2881,-1.2883,-1.2894,-1.2903,-1.2895,-1.2734,0,0,0,0,0,-1.2311,-1.237,-1.242,-1.2498,-1.2522,-1.2555,-1.2591,-1.2601,-1.265,-1.267,-1.2708,-1.2756,-1.2817,-1.2857,-1.2915,-1.3013,-1.3027,-1.3055,-1.3064,-1.3071,-1.308,-1.3134,-1.3148,-1.3004,-1.3004,-1.3004,0,0,-1.2344,-1.2384,-1.242,-1.2503,-1.2541,-1.2602,-1.2572,-1.2638,-1.2684,-1.2681,-1.2765,-1.2793,-1.2849,-1.2941,-1.2984,-1.2968,-1.3123,-1.3079,-1.3084,-1.309,-1.3142,-1.3156,-1.3168,-1.3008,-1.3008,-1.3007,0,0,-1.2434,-1.247,-1.254,-1.2577,-1.2633,-1.2655,-1.2671,-1.2727,-1.2746,-1.283,-1.2829,-1.2883,-1.2988,-1.3028,-1.3061,-1.3165,-1.3163,-1.3184,-1.3231,-1.3283,-1.3295,-1.3305,-1.3343,-1.3356,-1.3193,-1.3193,-1.3193,0,-1.2468,-1.256,-1.2576,-1.2642,-1.2679,-1.2677,-1.2748,-1.2783,-1.2856,-1.2882,-1.2863,-1.2993,-1.303,-1.3132,-1.3157,-1.3184,-1.3205,-1.3178,-1.3291,-1.3302,-1.3312,-1.3348,-1.3363,-1.3195,-1.3195,-1.3195,-1.3194,0,-1.2599,-1.2662,-1.2711,-1.2781,-1.2823,-1.2891,-1.2918,-1.2959,-1.2964,-1.2988,-1.3074,-1.3118,-1.3186,-1.321,-1.3217,-1.3313,-1.3302,-1.3286,-1.3253,-1.3327,-1.3362,-1.3376,-1.3198,-1.3198,-1.3197,-1.3196,0,0,-1.2708,-1.2783,-1.2802,-1.2833,-1.2894,-1.2944,-1.3012,-1.3077,-1.3112,-1.3161,-1.322,-1.3307,-1.3293,-1.3331,-1.3342,-1.3388,-1.3469,-1.3368,-1.3369,-1.3386,-1.3578,-1.3591,-1.3607,-1.3466,-1.3469,-1.3471,-1.3574,0,-1.2806,-1.2926,-1.2942,-1.3048,-1.3108,-1.3105,-1.3165,-1.3209,-1.3232,-1.3286,-1.3312,-1.3374,-1.3351,-1.3374,-1.3419,-1.3449,-1.3508,-1.3442,-1.3522,-1.3524,-1.351,-1.3625,-1.3638,-1.3734,-1.3588,-1.359,-1.3592,0,-1.2937,-1.299,-1.3102,-1.3154,-1.318,-1.3233,-1.3294,-1.3345,-1.3395,-1.3408,-1.345,-1.3455,-1.3526,-1.3487,-1.3586,-1.354,-1.3574,-1.3593,-1.3597,-1.3607,-1.3564,-1.3639,-1.3764,-1.3779,-1.3613,-1.3611,-1.361,0,-1.3007,-1.3106,-1.3186,-1.3212,-1.3275,-1.3313,-1.3341,-1.3388,-1.3426,-1.3479,-1.3504,-1.3564,-1.3598,-1.3645,-1.3666,-1.3636,-1.3763,-1.3726,-1.3778,-1.3777,-1.3807,-1.3805,-1.3941,-1.3825,-1.3825,-1.3824,-1.3824,0,-1.3116,-1.3186,-1.3218,-1.3268,-1.3345,-1.3362,-1.3438,-1.3465,-1.3507,-1.3562,-1.3563,-1.3615,-1.3639,-1.3694,-1.3711,-1.379,-1.3805,-1.3819,-1.3823,-1.382,-1.3819,-1.3844,-1.3839,-1.3828,-1.3827,-1.3827,-1.3826,0,-1.3209,-1.3233,-1.3321,-1.3372,-1.3387,-1.3442,-1.3486,-1.3534,-1.3556,-1.3626,-1.3643,-1.3678,-1.3744,-1.3768,-1.3848,-1.386,-1.3952,-1.3949,-1.3935,-1.3936,-1.3987,-1.3983,-1.4145,-1.4168,-1.4036,-1.4037,-1.4038,0,-1.3278,-1.3331,-1.3388,-1.3425,-1.3454,-1.3513,-1.3551,-1.3569,-1.3609,-1.3669,-1.371,-1.3775,-1.3828,-1.3932,-1.3965,-1.4026,-1.4026,-1.4079,-1.4036,-1.4031,-1.4029,-1.4027,-1.4032,-1.4088,-1.4089,-1.409,-1.4091,0,-1.3399,-1.3408,-1.3463,-1.3522,-1.3567,-1.3615,-1.3661,-1.3691,-1.3716,-1.3761,-1.3827,-1.3868,-1.3948,-1.4013,-1.4075,-1.4105,-1.4103,-1.4104,-1.412,-1.4118,-1.4108,-1.4116,-1.3959,-1.4101,-1.41,-1.4099,-1.4099,-1.4099,-1.3483,-1.353,-1.3578,-1.3639,-1.3675,-1.3718,-1.3765,-1.3793,-1.3848,-1.3915,-1.3922,-1.3993,-1.4041,-1.4124,-1.4156,-1.4212,-1.4199,-1.4221,-1.4227,-1.4232,-1.4237,-1.4097,-1.4224,-1.4223,-1.4223,-1.4223,-1.4223,0,-1.3606,-1.3635,-1.3691,-1.3755,-1.3803,-1.3795,-1.3845,-1.3886,-1.3949,-1.3993,-1.4044,-1.412,-1.4182,-1.4219,-1.4282,-1.432,-1.4321,-1.4336,-1.4335,-1.4341,-1.4245,-1.4226,-1.4334,-1.4334,-1.4334,-1.4334,-1.4334,-1.4334,-1.3675,-1.3754,-1.3769,-1.3866,-1.3895,-1.3965,-1.3994,-1.4034,-1.4069,-1.4154,-1.4205,-1.4228,-1.427,-1.4335,-1.4392,-1.4401,-1.4425,-1.4442,-1.445,-1.436,-1.4348,-1.4337,-1.432,-1.4446,-1.4446,-1.4542,-1.4543,-1.4544]},{"header":{"parameterUnit":"m.s-1","parameterCategory":1,"la1":30.2991,"la2":30.254,"lo1":-89.0895,"lo2":-89.0444,"dy":0.0017,"dx":0.0017,"nx":28,"ny":28,"refTime":"2024-02-18T03:00:00:Z","depth":0,"parameterNumber":3,"parameterNumberName":"V-component_of_WINDS"},"data":[0,0,0,0,0,0,0,0,0,0,0,0,0,0,0,0,0,0,0,0,0,0,0,0,0,0,0,0,0,0,0,0,0,0,0,0,0,0,0,0,0,0,0,0,0,0,0,0,0,0,0,0,0,0,0,0,0,0,-9.2493,-9.2495,0,-9.2646,-9.2648,-9.265,-9.2557,-9.2553,-9.2548,-9.2544,-9.2694,-9.2702,-9.271,0,0,0,0,0,0,0,0,0,0,0,0,0,-9.2114,-9.2121,-9.2493,-9.2495,-9.2497,-9.2646,-9.2648,-9.265,-9.2558,-9.2553,-9.2547,-9.2542,-9.2691,-9.2701,-9.271,0,0,0,0,0,0,0,0,0,0,0,0,0,-9.2274,-9.2124,-9.2493,-9.2469,-9.2468,-9.2646,-9.2648,-9.2651,-9.2559,-9.2552,-9.2546,-9.254,-9.2688,-9.27,-9.2712,-9.2919,0,0,-9.2749,-9.2754,0,0,0,0,0,0,0,0,-9.2265,-9.2288,-9.2471,-9.2471,-9.2471,-9.2576,-9.2569,-9.274,-9.2561,-9.2524,-9.2544,-9.2537,-9.266,-9.2674,-9.2717,-9.2926,-9.2932,-9.275,-9.2757,-9.2762,-9.2766,0,0,0,0,0,0,0,-9.2254,-9.2281,-9.2553,-9.2473,-9.2473,-9.2448,-9.2464,-9.2601,-9.2627,-9.2527,-9.2521,-9.2541,-9.2658,-9.2705,-9.2719,-9.2934,-9.275,-9.276,-9.2768,-9.2773,-9.332,-9.3327,0,0,0,0,0,0,-9.2245,-9.2272,-9.2548,-9.2558,-9.235,-9.2461,-9.2478,-9.2549,-9.2625,-9.2631,-9.2546,-9.2536,-9.2688,-9.2705,-9.2724,-9.2972,-9.2762,-9.2774,-9.2781,-9.3313,-9.3322,-9.333,0,0,0,0,0,0,-9.2238,-9.2271,-9.2542,-9.2413,-9.2446,-9.2474,-9.2554,-9.2555,-9.2602,-9.264,-9.2643,-9.259,-9.2683,-9.2707,-9.2872,-9.2976,-9.2779,-9.279,-9.3305,-9.3316,-9.3326,-9.3469,0,0,0,0,0,0,-9.2227,-9.2269,-9.2349,-9.2416,-9.2453,-9.269,-9.2561,-9.2563,-9.2624,-9.2612,-9.2682,-9.2687,-9.268,-9.2854,-9.2884,-9.2989,-9.28,-9.3295,-9.331,-9.3323,-9.3455,-9.3484,-9.3508,0,0,0,0,0,-9.2214,-9.2382,-9.2354,-9.2388,-9.2555,-9.2696,-9.2717,-9.2708,-9.2633,-9.2713,-9.2737,-9.2684,-9.296,-9.2872,-9.2904,-9.3015,-9.3289,-9.3306,-9.3321,-9.3443,-9.3478,-9.3507,0,0,0,0,0,0,-9.2324,-9.239,-9.236,-9.2555,-9.2621,-9.268,-9.2781,-9.2745,-9.2831,-9.2816,-9.2799,-9.2815,-9.2987,-9.3017,-9.2918,-9.3219,-9.3112,-9.3136,-9.3194,-9.3227,-9.3253,-9.3242,-9.281,0,0,0,0,0,-9.2371,-9.2483,-9.2533,-9.27,-9.2735,-9.2753,-9.2814,-9.2801,-9.2868,-9.2894,-9.293,-9.2995,-9.3096,-9.3163,-9.3257,-9.3459,-9.3472,-9.3551,-9.3577,-9.3598,-9.3619,-9.3728,-9.3763,-9.3384,-9.3384,-9.3383,0,0,-9.2469,-9.2519,-9.259,-9.2723,-9.2773,-9.2887,-9.2777,-9.2901,-9.2985,-9.2912,-9.3071,-9.31,-9.317,-9.3354,-9.3437,-9.3384,-9.3727,-9.3619,-9.3636,-9.3645,-9.3748,-9.3784,-9.3816,-9.3395,-9.3393,-9.3391,0,0,-9.2706,-9.2756,-9.2901,-9.2953,-9.3031,-9.3042,-9.3077,-9.3142,-9.3159,-9.3319,-9.3267,-9.3364,-9.3539,-9.3592,-9.3641,-9.39,-9.3854,-9.3931,-9.4068,-9.4175,-9.4205,-9.4231,-9.4323,-9.4357,-9.3951,-9.3951,-9.3952,0,-9.2818,-9.299,-9.2979,-9.3109,-9.3169,-9.3111,-9.3257,-9.3307,-9.3411,-9.3453,-9.3393,-9.3611,-9.3655,-9.3851,-9.3914,-9.3956,-9.3994,-9.3923,-9.4202,-9.4228,-9.4252,-9.434,-9.4375,-9.396,-9.3959,-9.3958,-9.3958,0,-9.3123,-9.3243,-9.335,-9.3456,-9.3527,-9.3664,-9.3672,-9.3746,-9.3727,-9.3744,-9.3906,-9.3956,-9.4061,-9.4106,-9.4087,-9.4299,-9.4265,-9.4204,-9.4096,-9.4298,-9.438,-9.4414,-9.3973,-9.397,-9.3967,-9.3965,0,0,-9.3434,-9.3533,-9.3572,-9.362,-9.3701,-9.3793,-9.3926,-9.4031,-9.4094,-9.4167,-9.4278,-9.4428,-9.4372,-9.4429,-9.4416,-9.4509,-9.4711,-9.4436,-9.4438,-9.4486,-9.4948,-9.4994,-9.5033,-9.4681,-9.4687,-9.4692,-9.4942,0,-9.3677,-9.3914,-9.3909,-9.4128,-9.4238,-9.4185,-9.4301,-9.4362,-9.4381,-9.4476,-9.4495,-9.4602,-9.452,-9.4554,-9.4644,-9.4668,-9.4803,-9.4649,-9.4783,-9.4788,-9.4768,-9.5076,-9.5125,-9.5358,-9.4974,-9.4979,-9.4983,0,-9.3992,-9.408,-9.4311,-9.4378,-9.4423,-9.4529,-9.4624,-9.4716,-9.4784,-9.4791,-9.4855,-9.4827,-9.4961,-9.4849,-9.5032,-9.4928,-9.4982,-9.5001,-9.501,-9.5023,-9.4898,-9.5097,-9.5432,-9.5467,-9.5034,-9.503,-9.5026,0,-9.4197,-9.4372,-9.4533,-9.4575,-9.4656,-9.4731,-9.4768,-9.483,-9.4894,-9.4976,-9.5017,-9.5113,-9.5166,-9.524,-9.5238,-9.5157,-9.5424,-9.5312,-9.5432,-9.5433,-9.5491,-9.5488,-9.584,-9.5525,-9.5525,-9.5524,-9.5523,0,-9.447,-9.4613,-9.4627,-9.4726,-9.4885,-9.4876,-9.5033,-9.5061,-9.5117,-9.5219,-9.5177,-9.5274,-9.5265,-9.5362,-9.5361,-9.5513,-9.5536,-9.5545,-9.5543,-9.555,-9.5549,-9.5585,-9.5569,-9.5533,-9.5531,-9.5529,-9.5528,0,-9.4725,-9.474,-9.4913,-9.4976,-9.4995,-9.511,-9.5163,-9.5256,-9.5271,-9.5402,-9.5431,-9.5455,-9.5567,-9.5572,-9.57,-9.5699,-9.5884,-9.5864,-9.5863,-9.5859,-9.5979,-9.5968,-9.6368,-9.642,-9.6071,-9.6074,-9.6077,0,-9.4899,-9.5009,-9.5085,-9.5152,-9.5194,-9.5302,-9.5368,-9.5363,-9.5432,-9.5518,-9.5601,-9.5709,-9.5796,-9.5977,-9.6003,-9.6101,-9.6083,-9.6216,-9.6097,-9.61,-9.6085,-9.6079,-9.609,-9.6239,-9.6243,-9.6246,-9.6249,0,-9.5205,-9.5208,-9.5305,-9.5407,-9.5487,-9.5565,-9.5637,-9.5694,-9.5697,-9.5776,-9.5892,-9.596,-9.6091,-9.6199,-9.6294,-9.6329,-9.629,-9.6286,-9.6319,-9.6327,-9.6323,-9.6327,-9.5927,-9.6277,-9.6274,-9.6272,-9.6271,-9.627,-9.5426,-9.5521,-9.5591,-9.5701,-9.5756,-9.5825,-9.5916,-9.5944,-9.6041,-9.615,-9.614,-9.6268,-9.6332,-9.6457,-9.6499,-9.6598,-9.6552,-9.6599,-9.6611,-9.6624,-9.6637,-9.6307,-9.6614,-9.6614,-9.6613,-9.6612,-9.6612,0,-9.5731,-9.5773,-9.5875,-9.598,-9.6066,-9.6024,-9.6102,-9.6177,-9.6291,-9.6356,-9.6442,-9.6575,-9.6679,-9.6715,-9.6816,-9.6888,-9.6872,-9.6914,-9.6909,-9.6918,-9.6672,-9.6634,-9.6925,-9.6925,-9.6925,-9.6925,-9.6925,-9.6925,-9.59,-9.606,-9.607,-9.6256,-9.6296,-9.6424,-9.6473,-9.6536,-9.6587,-9.6738,-9.6826,-9.6849,-9.6902,-9.7007,-9.71,-9.7107,-9.7146,-9.7197,-9.7197,-9.6966,-9.6935,-9.6905,-9.6869,-9.7205,-9.7205,-9.7434,-9.7436,-9.7438]}]]